Regional Weather Roundup
Issued by NWS

Home | Current Version | Previous Version | Text Only | Print | Product List | Glossary On
Versions: 1 2 3 4 5 6 7 8 9 10 11 12 13 14 15 16 17 18 19 20 21 22 23 24 25 26 27 28 29 30 31 32 33 34 35 36 37 38 39 40 41 42 43 44 45 46 47 48 49 50
000
ASUS44 KMEG 220000
RWRTN
TENNESSEE HOURLY STATE WEATHER ROUNDUP
NATIONAL WEATHER SERVICE MEMPHIS TN
600 PM CST TUE FEB 21 2017

TNZ002-004-019-021-049-052-054-088>092-220100-
WEST TENNESSEE

CITY           SKY/WX    TMP DP  RH WIND       PRES   REMARKS
MEMPHIS INTL   MOCLDY    63  59  87 SE7       29.85S
NWS MEMPHIS      N/A     62 N/A N/A MISG        N/A
JACKSON        CLOUDY    61  60  97 E5        29.90R
UNION CITY     CLOUDY   N/A N/A N/A CALM      29.91S
PARIS          CLOUDY    59  55  88 N3        29.92S
$$

TNZ008-025-027-028-033-062-065-066-220100-
NORTH MIDDLE TENNESSEE

CITY           SKY/WX    TMP DP  RH WIND       PRES   REMARKS
NASHVILLE      CLOUDY    62  54  74 SE9       29.96R
CLARKSVILLE    CLOUDY    65  53  65 SE12      29.92R
SMYRNA         CLOUDY    61  55  81 SE7       29.97R
CROSSVILLE     LGT RAIN  53  51  93 CALM      30.02F
$$

TNZ061-075-076-078-094-096-097-220100-
SOUTH MIDDLE TENNESSEE

CITY           SKY/WX    TMP DP  RH WIND       PRES   REMARKS
TULLAHOMA      CLOUDY    57  54  88 SE7       29.97R
WINCHESTER     CLOUDY    57  54  88 SE10      29.97R
MCMINNVILLE    CLOUDY    59  55  88 VRB6      29.97S
COLUMBIA       CLOUDY   N/A N/A N/A SE3       29.93R
SHELBYVILLE    CLOUDY    59  57  94 CALM      29.97R
$$

TNZ017-018-042-046-047-220100-
NORTHEAST TENNESSEE

CITY           SKY/WX    TMP DP  RH WIND       PRES   REMARKS
TRI CITIES     CLOUDY    63  44  50 S7        30.05R
$$

TNZ012-013-036-069-073-074-220100-
CENTRAL EAST TENNESSEE

CITY           SKY/WX    TMP DP  RH WIND       PRES   REMARKS
KNOXVILLE      CLOUDY    65  45  48 S6        29.99S
OAK RIDGE      LGT RAIN  62  50  64 W3        30.02S
GATLINBURG     CLOUDY    64  45  48 CALM      30.00S
$$

TNZ083-085-099-220100-
SOUTHEAST TENNESSEE

CITY           SKY/WX    TMP DP  RH WIND       PRES   REMARKS
CHATTANOOGA    CLOUDY    58  56  93 E5        30.00F FOG
$$

SKY/WX REPORTED AS FAIR MEANS FEW OR NO CLOUDS BELOW
12 THOUSAND FEET.





USA.gov is the U.S. government's official web portal to all federal, state and local government web resources and services.